Location: Czu?�w
(50.1404°N, 18.9919°E)
Time: 11:56:30
(UTC+00:00)

Cosmos 2227 - Pass Details

Date: 27 October 2020
Orbit: 836 x 860 km, 71.0° (Epoch: 24 November)

Event Time Altitude Azimuth Distance (km) Brightness Sun altitude
Rises 18:14:20 0° 331° (NNW) 3,399 7.9 -27.0°
Reaches altitude 10° 18:16:48 10° 334° (NNW) 2,460 7.1 -27.4°
Enters shadow 18:21:36 60° 9° (N) 953 4.4 -28.1°
